JA0QEV-13 Weather Reports


time (UTC)temp
F
wind
direction
speed
knots
gust
knots
rain 1hr
in
rain 24hr
in
rain mn
in
humidity
%
barometer
mb
20260504185828 44 135 0.0 0.9 0.00 0.24 0.00 94 1015.9
20260504185338 44 114 0.0 0.9 0.00 0.24 0.00 93 1015.8
20260504184828 44 115 0.0 0.9 0.00 0.24 0.00 93 1015.8
20260504184318 44 96 0.0 1.7 0.00 0.24 0.00 93 1015.8
20260504183848 45 96 0.0 1.7 0.00 0.24 0.00 93 1015.7
20260504183316 45 143 0.0 0.9 0.00 0.24 0.00 92 1015.5
20260504182823 45 203 0.0 1.7 0.00 0.24 0.00 93 1015.3
20260504182316 45 198 0.0 0.9 0.00 0.24 0.00 92 1015.2
20260504181825 45 207 0.0 1.7 0.00 0.24 0.00 92 1015.2
20260504181315 45 209 0.0 1.7 0.00 0.24 0.00 92 1015.3
20260504180846 45 144 0.0 0.0 0.00 0.24 0.00 92 1015.4
20260504180355 45 186 0.0 0.9 0.00 0.24 0.00 92 1015.3
20260504175819 46 184 0.0 0.9 0.00 0.24 0.00 92 1015.2
20260504175330 46 183 0.0 0.9 0.00 0.24 0.00 91 1015.0
20260504174820 46 184 0.0 0.9 0.00 0.24 0.00 91 1015.0
20260504174330 46 184 0.0 0.0 0.00 0.24 0.00 91 1015.0
20260504173841 46 184 0.0 0.0 0.00 0.24 0.00 91 1015.0
20260504173330 46 184 0.0 0.0 0.00 0.24 0.00 91 1015.0
20260504172837 46 184 0.0 1.7 0.00 0.24 0.00 91 1015.0
20260504172327 46 197 0.0 1.7 0.00 0.24 0.00 90 1015.0
20260504171816 47 195 0.0 0.9 0.00 0.24 0.00 90 1015.0
20260504171324 47 195 0.0 0.9 0.00 0.24 0.00 90 1015.0
20260504170818 47 196 0.0 0.9 0.00 0.24 0.00 90 1014.9
20260504160319 50 329 0.9 1.7 0.00 0.26 0.00 79 1014.7
20260504150823 52 87 6.1 13.9 0.00 0.28 0.00 75 1014.4
20260504150354 52 91 8.7 13.9 0.00 0.28 0.00 75 1014.3
20260504141325 52 89 1.7 6.1 0.00 0.30 0.28 81 1014.0
20260504140834 52 99 2.6 7.0 0.00 0.30 0.28 81 1014.0
20260504140322 52 81 3.5 8.7 0.00 0.30 0.28 80 1014.0
20260504130820 52 91 5.2 13.0 0.01 0.33 0.28 78 1013.5
20260504130331 52 123 4.3 17.4 0.01 0.33 0.28 78 1013.5
20260504110325 54 96 9.6 24.3 0.00 0.35 0.22 78 1010.2